• In Russia
  • List of Countries
  • For 7 days
  • Water Temperature
  • Weather Map
  • Weather Widgets
  • user-avatar
    Login

    Hourly Weather Perth

    Today, 25 August, Sunday

    Time Temperature Precipitation Wind Pressure Humidity
    00:00 +10°C° 0 mm 3 mps 768 mmHg 71%
    01:00 +10°C° 0 mm 3 mps 767 mmHg 70%
    02:00 +10°C° 0 mm 3 mps 767 mmHg 71%
    03:00 +10°C° 0 mm 3 mps 767 mmHg 71%
    04:00 +10°C° 0 mm 4 mps 767 mmHg 72%
    05:00 +8°C° 0 mm 4 mps 767 mmHg 73%
    06:00 +10°C° 0 mm 4 mps 767 mmHg 72%
    07:00 +10°C° 0 mm 4 mps 767 mmHg 72%
    08:00 +10°C° 0 mm 4 mps 768 mmHg 72%
    09:00 +12°C° 0 mm 3 mps 768 mmHg 67%
    10:00 +14°C° 0 mm 3 mps 767 mmHg 61%
    11:00 +16°C° 0 mm 3 mps 767 mmHg 56%
    12:00 +17°C° 0 mm 3 mps 767 mmHg 54%
    13:00 +18°C° 0 mm 3 mps 766 mmHg 51%
    14:00 +19°C° 0 mm 2 mps 765 mmHg 48%
    15:00 +18°C° 0 mm 3 mps 766 mmHg 53%
    16:00 +18°C° 0 mm 3 mps 766 mmHg 58%
    17:00 +17°C° 0 mm 3 mps 766 mmHg 63%
    18:00 +16°C° 0 mm 3 mps 767 mmHg 66%
    19:00 +14°C° 0 mm 3 mps 767 mmHg 69%
    20:00 +13°C° 0 mm 3 mps 767 mmHg 73%
    21:00 +12°C° 0 mm 3 mps 767 mmHg 72%
    22:00 +12°C° 0 mm 3 mps 768 mmHg 72%
    23:00 +13°C° 0 mm 2 mps 768 mmHg 72%

    Tomorrow, 26 August, Monday

    Time Temperature Precipitation Wind Pressure Humidity
    00:00 +11°C° 0 mm 3 mps 767 mmHg 72%
    01:00 +11°C° 0 mm 3 mps 767 mmHg 71%
    02:00 +11°C° 0 mm 3 mps 767 mmHg 70%
    03:00 +11°C° 0 mm 3 mps 767 mmHg 70%
    04:00 +10°C° 0 mm 3 mps 767 mmHg 69%
    05:00 +10°C° 0 mm 4 mps 767 mmHg 69%
    06:00 +10°C° 0 mm 3 mps 767 mmHg 68%
    07:00 +11°C° 0 mm 3 mps 768 mmHg 67%
    08:00 +11°C° 0 mm 3 mps 768 mmHg 66%
    09:00 +13°C° 0 mm 3 mps 768 mmHg 60%
    10:00 +16°C° 0 mm 3 mps 768 mmHg 54%
    11:00 +18°C° 0 mm 3 mps 768 mmHg 48%
    12:00 +19°C° 0 mm 3 mps 767 mmHg 47%
    13:00 +19°C° 0 mm 3 mps 767 mmHg 46%
    14:00 +20°C° 0 mm 2 mps 766 mmHg 44%
    15:00 +19°C° 0 mm 2 mps 766 mmHg 48%
    16:00 +19°C° 0 mm 2 mps 766 mmHg 52%
    17:00 +18°C° 0 mm 2 mps 766 mmHg 56%
    18:00 +17°C° 0 mm 2 mps 766 mmHg 58%
    19:00 +16°C° 0 mm 2 mps 766 mmHg 61%
    20:00 +15°C° 0 mm 2 mps 767 mmHg 64%
    21:00 +13°C° 0 mm 3 mps 767 mmHg 64%
    22:00 +12°C° 0 mm 3 mps 767 mmHg 64%
    23:00 +12°C° 0 mm 3 mps 767 mmHg 64%

    Day after tomorrow, 27 August, Tuesday

    Time Temperature Precipitation Wind Pressure Humidity
    00:00 +12°C° 0 mm 3 mps 767 mmHg 64%
    01:00 +11°C° 0 mm 3 mps 766 mmHg 64%
    02:00 +11°C° 0 mm 4 mps 766 mmHg 64%
    03:00 +11°C° 0 mm 4 mps 766 mmHg 64%
    04:00 +10°C° 0 mm 4 mps 766 mmHg 63%
    05:00 +10°C° 0 mm 4 mps 765 mmHg 62%
    06:00 +11°C° 0 mm 4 mps 766 mmHg 60%
    07:00 +11°C° 0 mm 4 mps 766 mmHg 58%
    08:00 +11°C° 0 mm 4 mps 766 mmHg 56%
    09:00 +13°C° 0 mm 4 mps 766 mmHg 53%
    10:00 +15°C° 0 mm 4 mps 765 mmHg 50%
    11:00 +17°C° 0 mm 5 mps 765 mmHg 47%
    12:00 +19°C° 0 mm 4 mps 765 mmHg 47%
    13:00 +20°C° 0 mm 4 mps 764 mmHg 48%
    14:00 +21°C° 0 mm 4 mps 763 mmHg 48%
    15:00 +21°C° 0 mm 3 mps 763 mmHg 52%
    16:00 +20°C° 0 mm 3 mps 763 mmHg 56%
    17:00 +20°C° 0 mm 2 mps 763 mmHg 60%
    18:00 +19°C° 0 mm 2 mps 763 mmHg 63%
    19:00 +17°C° 0 mm 3 mps 763 mmHg 65%
    20:00 +16°C° 0 mm 3 mps 763 mmHg 68%
    21:00 +15°C° 0 mm 4 mps 763 mmHg 65%
    22:00 +15°C° 0 mm 4 mps 763 mmHg 62%
    23:00 +15°C° 0 mm 4 mps 762 mmHg 59%

    28 August, Wednesday

    Time Temperature Precipitation Wind Pressure Humidity
    00:00 +14°C° 0 mm 4 mps 762 mmHg 56%
    01:00 +14°C° 0 mm 5 mps 762 mmHg 53%
    02:00 +14°C° 0 mm 5 mps 761 mmHg 50%
    03:00 +14°C° 0 mm 5 mps 761 mmHg 50%
    04:00 +14°C° 0 mm 5 mps 761 mmHg 50%
    05:00 +14°C° 0 mm 5 mps 760 mmHg 49%
    06:00 +14°C° 0 mm 5 mps 760 mmHg 50%
    07:00 +15°C° 0 mm 5 mps 761 mmHg 51%
    08:00 +15°C° 0 mm 5 mps 761 mmHg 51%
    09:00 +17°C° 0 mm 5 mps 760 mmHg 50%
    10:00 +20°C° 0 mm 5 mps 760 mmHg 49%
    11:00 +23°C° 0 mm 5 mps 760 mmHg 48%
    12:00 +25°C° 0 mm 4 mps 759 mmHg 48%
    13:00 +25°C° 0 mm 4 mps 758 mmHg 48%
    14:00 +26°C° 0 mm 3 mps 758 mmHg 48%
    15:00 +26°C° 0 mm 3 mps 757 mmHg 51%
    16:00 +26°C° 0 mm 2 mps 757 mmHg 54%
    17:00 +25°C° 0 mm 2 mps 757 mmHg 57%
    18:00 +23°C° 0 mm 2 mps 757 mmHg 61%
    19:00 +21°C° 0 mm 2 mps 757 mmHg 64%
    20:00 +19°C° 0 mm 2 mps 757 mmHg 67%
    21:00 +18°C° 0 mm 2 mps 757 mmHg 66%
    22:00 +18°C° 0 mm 3 mps 757 mmHg 66%
    23:00 +17°C° 0 mm 3 mps 757 mmHg 65%

    29 August, Thursday

    Time Temperature Precipitation Wind Pressure Humidity
    00:00 +17°C° 0 mm 3 mps 757 mmHg 71%
    01:00 +16°C° 0 mm 3 mps 756 mmHg 77%
    02:00 +15°C° 0 mm 4 mps 756 mmHg 83%
    03:00 +15°C° 0 mm 4 mps 756 mmHg 86%
    04:00 +15°C° 0 mm 4 mps 755 mmHg 90%
    05:00 +17°C° 0 mm 4 mps 755 mmHg 93%
    06:00 +16°C° 0.2 mm 5 mps 755 mmHg 91%
    07:00 +16°C° 0.2 mm 5 mps 755 mmHg 89%
    08:00 +16°C° 0.2 mm 5 mps 755 mmHg 87%
    09:00 +17°C° 0.3 mm 6 mps 755 mmHg 82%
    10:00 +18°C° 0.3 mm 7 mps 755 mmHg 76%
    11:00 +20°C° 0.3 mm 8 mps 755 mmHg 71%
    12:00 +20°C° 0.4 mm 8 mps 754 mmHg 72%
    13:00 +19°C° 0.4 mm 9 mps 754 mmHg 72%
    14:00 +19°C° 0.4 mm 9 mps 753 mmHg 73%
    15:00 +19°C° 0.2 mm 9 mps 753 mmHg 72%
    16:00 +19°C° 0.2 mm 9 mps 752 mmHg 72%
    17:00 +18°C° 0.2 mm 9 mps 752 mmHg 71%
    18:00 +18°C° 1.7 mm 9 mps 752 mmHg 77%
    19:00 +17°C° 1.7 mm 9 mps 752 mmHg 83%
    20:00 +16°C° 1.7 mm 10 mps 752 mmHg 90%
    21:00 +16°C° 2.7 mm 9 mps 752 mmHg 85%
    22:00 +16°C° 2.7 mm 8 mps 753 mmHg 80%
    23:00 +16°C° 2.7 mm 8 mps 753 mmHg 75%

    30 August, Friday

    Time Temperature Precipitation Wind Pressure Humidity
    00:00 +16°C° 0.1 mm 7 mps 753 mmHg 73%
    01:00 +15°C° 0.1 mm 7 mps 753 mmHg 71%
    02:00 +15°C° 0.1 mm 7 mps 753 mmHg 69%
    03:00 +15°C° 0.1 mm 6 mps 753 mmHg 69%
    04:00 +15°C° 0.1 mm 6 mps 753 mmHg 70%
    05:00 +14°C° 0.1 mm 6 mps 754 mmHg 71%
    06:00 +14°C° 0.4 mm 6 mps 754 mmHg 72%
    07:00 +15°C° 0.4 mm 6 mps 754 mmHg 72%
    08:00 +15°C° 0.4 mm 6 mps 755 mmHg 73%
    09:00 +16°C° 0.2 mm 6 mps 755 mmHg 69%
    10:00 +17°C° 0.2 mm 7 mps 755 mmHg 64%
    11:00 +18°C° 0.2 mm 7 mps 755 mmHg 60%
    12:00 +17°C° 0.6 mm 7 mps 754 mmHg 63%
    13:00 +17°C° 0.6 mm 8 mps 754 mmHg 66%
    14:00 +17°C° 0.6 mm 8 mps 753 mmHg 68%
    15:00 +17°C° 0.3 mm 8 mps 753 mmHg 67%
    16:00 +17°C° 0.3 mm 8 mps 753 mmHg 65%
    17:00 +17°C° 0.3 mm 8 mps 753 mmHg 64%
    18:00 +16°C° 0.4 mm 9 mps 753 mmHg 69%
    19:00 +16°C° 0.4 mm 9 mps 753 mmHg 73%
    20:00 +15°C° 0.4 mm 9 mps 754 mmHg 78%
    21:00 +15°C° 0.8 mm 9 mps 754 mmHg 76%
    22:00 +15°C° 0.8 mm 8 mps 754 mmHg 75%
    23:00 +15°C° 0.8 mm 7 mps 754 mmHg 73%
    Show more